| time (UTC) | temp F | wind direction | speed MPH | gust MPH | rain 1hr in | rain 24hr in | rain mn in | humidity % | barometer mb |
| 20260502235223 | 52 | 85 | 2.0 | 3.0 | 0.00 | 0.00 | 0.00 | 75 | 1019.9 |
| 20260502234720 | 51 | 110 | 2.0 | 3.0 | 0.00 | 0.00 | 0.00 | 76 | 1020.0 |
| 20260502234217 | 51 | 110 | 2.0 | 3.0 | 0.00 | 0.00 | 0.00 | 76 | 1020.0 |
| 20260502233717 | 51 | 94 | 2.0 | 2.0 | 0.00 | 0.00 | 0.00 | 75 | 1020.1 |
| 20260502233218 | 52 | 65 | 0.0 | 2.0 | 0.00 | 0.00 | 0.00 | 74 | 1020.0 |
| 20260502232720 | 52 | 111 | 0.0 | 2.0 | 0.00 | 0.00 | 0.00 | 74 | 1020.0 |
| 20260502232226 | 52 | 112 | 0.0 | 3.0 | 0.00 | 0.00 | 0.00 | 75 | 1020.2 |
| 20260502231723 | 52 | 133 | 2.0 | 3.0 | 0.00 | 0.00 | 0.00 | 74 | 1020.2 |
| 20260502231227 | 52 | 119 | 0.0 | 0.0 | 0.00 | 0.00 | 0.00 | 73 | 1020.3 |
| 20260502230717 | 53 | 119 | 0.0 | 3.0 | 0.00 | 0.00 | 0.00 | 73 | 1020.2 |
| 20260502230220 | 53 | 142 | 2.0 | 3.0 | 0.00 | 0.00 | 0.00 | 73 | 1020.2 |
| 20260502225719 | 53 | 141 | 0.0 | 2.0 | 0.00 | 0.00 | 0.00 | 73 | 1020.3 |
| 20260502225217 | 52 | 102 | 1.0 | 3.0 | 0.00 | 0.00 | 0.00 | 73 | 1020.2 |
| 20260502224723 | 52 | 102 | 2.0 | 5.0 | 0.00 | 0.00 | 0.00 | 74 | 1020.4 |
| 20260502224217 | 53 | 133 | 3.0 | 4.0 | 0.00 | 0.00 | 0.00 | 73 | 1020.4 |
| 20260502223723 | 53 | 138 | 0.0 | 1.0 | 0.00 | 0.00 | 0.00 | 72 | 1020.4 |
| 20260502223217 | 54 | 138 | 1.0 | 2.0 | 0.00 | 0.00 | 0.00 | 71 | 1020.2 |
| 20260502222717 | 54 | 138 | 0.0 | 2.0 | 0.00 | 0.00 | 0.00 | 70 | 1020.4 |
| 20260502222217 | 54 | 80 | 2.0 | 4.0 | 0.00 | 0.00 | 0.00 | 69 | 1020.3 |
| 20260502221720 | 54 | 82 | 3.0 | 4.0 | 0.00 | 0.00 | 0.00 | 70 | 1020.3 |
| 20260502221217 | 53 | 121 | 1.0 | 4.0 | 0.00 | 0.00 | 0.00 | 72 | 1020.4 |
| 20260502220723 | 54 | 124 | 4.0 | 5.0 | 0.00 | 0.00 | 0.00 | 72 | 1020.4 |
| 20260502220226 | 54 | 148 | 2.0 | 3.0 | 0.00 | 0.00 | 0.00 | 72 | 1020.4 |
| 20260502215720 | 54 | 138 | 1.0 | 3.0 | 0.00 | 0.00 | 0.00 | 71 | 1020.3 |
| 20260502215217 | 54 | 149 | 2.0 | 3.0 | 0.00 | 0.00 | 0.00 | 70 | 1020.3 |
| 20260502214720 | 55 | 149 | 0.0 | 1.0 | 0.00 | 0.00 | 0.00 | 69 | 1020.3 |
| 20260502214223 | 55 | 149 | 1.0 | 4.0 | 0.00 | 0.00 | 0.00 | 69 | 1020.4 |
| 20260502213727 | 55 | 167 | 3.0 | 4.0 | 0.00 | 0.00 | 0.00 | 69 | 1020.4 |
| 20260502213217 | 55 | 127 | 2.0 | 3.0 | 0.00 | 0.00 | 0.00 | 69 | 1020.4 |
| 20260502212720 | 55 | 127 | 3.0 | 3.0 | 0.00 | 0.00 | 0.00 | 68 | 1020.4 |
| 20260502212218 | 55 | 98 | 2.0 | 2.0 | 0.00 | 0.00 | 0.00 | 69 | 1020.3 |
| 20260502211717 | 56 | 98 | 0.0 | 2.0 | 0.00 | 0.00 | 0.00 | 68 | 1020.3 |
| 20260502211220 | 56 | 96 | 0.0 | 2.0 | 0.00 | 0.00 | 0.00 | 67 | 1020.3 |
| 20260502210720 | 56 | 96 | 1.0 | 2.0 | 0.00 | 0.00 | 0.00 | 67 | 1020.2 |
| 20260502210217 | 57 | 84 | 0.0 | 2.0 | 0.00 | 0.00 | 0.00 | 66 | 1020.2 |
| 20260502205717 | 56 | 84 | 1.0 | 4.0 | 0.00 | 0.00 | 0.00 | 64 | 1020.2 |
| 20260502205220 | 56 | 78 | 3.0 | 4.0 | 0.00 | 0.00 | 0.00 | 65 | 1020.3 |
| 20260502204722 | 57 | 119 | 3.0 | 3.0 | 0.00 | 0.00 | 0.00 | 66 | 1020.4 |
| 20260502204221 | 57 | 104 | 1.0 | 1.0 | 0.00 | 0.00 | 0.00 | 65 | 1020.4 |
| 20260502203721 | 58 | 84 | 0.0 | 0.0 | 0.00 | 0.00 | 0.00 | 63 | 1020.3 |
| 20260502203222 | 58 | 84 | 0.0 | 3.0 | 0.00 | 0.00 | 0.00 | 62 | 1020.3 |
| 20260502202717 | 58 | 84 | 2.0 | 3.0 | 0.00 | 0.00 | 0.00 | 62 | 1020.3 |
| 20260502202226 | 58 | 110 | 1.0 | 3.0 | 0.00 | 0.00 | 0.00 | 63 | 1020.4 |
| 20260502201718 | 58 | 105 | 2.0 | 3.0 | 0.00 | 0.00 | 0.00 | 62 | 1020.4 |
| 20260502201220 | 59 | 97 | 1.0 | 3.0 | 0.00 | 0.00 | 0.00 | 62 | 1020.5 |
| 20260502200722 | 59 | 92 | 0.0 | 2.0 | 0.00 | 0.00 | 0.00 | 61 | 1020.4 |
| 20260502200220 | 59 | 94 | 1.0 | 1.0 | 0.00 | 0.00 | 0.00 | 60 | 1020.5 |
| 20260502195724 | 59 | 93 | 1.0 | 6.0 | 0.00 | 0.00 | 0.00 | 58 | 1020.3 |
| 20260502195226 | 59 | 90 | 3.0 | 4.0 | 0.00 | 0.00 | 0.00 | 58 | 1020.3 |
| 20260502194726 | 60 | 96 | 1.0 | 4.0 | 0.00 | 0.00 | 0.00 | 58 | 1020.2 |
| 20260502194217 | 60 | 103 | 2.0 | 4.0 | 0.00 | 0.00 | 0.00 | 57 | 1020.2 |
| 20260502193717 | 61 | 94 | 2.0 | 4.0 | 0.00 | 0.00 | 0.00 | 57 | 1020.1 |
| 20260502193223 | 61 | 108 | 2.0 | 2.0 | 0.00 | 0.00 | 0.00 | 56 | 1020.0 |
| 20260502192720 | 61 | 108 | 0.0 | 2.0 | 0.00 | 0.00 | 0.00 | 55 | 1019.9 |
| 20260502192219 | 62 | 108 | 1.0 | 2.0 | 0.00 | 0.00 | 0.00 | 55 | 1019.8 |
| 20260502191717 | 62 | 101 | 2.0 | 4.0 | 0.00 | 0.00 | 0.00 | 54 | 1019.8 |
| 20260502191220 | 62 | 82 | 1.0 | 4.0 | 0.00 | 0.00 | 0.00 | 54 | 1019.7 |
| 20260502190720 | 63 | 86 | 4.0 | 6.0 | 0.00 | 0.00 | 0.00 | 53 | 1019.6 |
| 20260502190217 | 63 | 98 | 4.0 | 4.0 | 0.00 | 0.00 | 0.00 | 53 | 1019.6 |
| 20260502185718 | 63 | 75 | 3.0 | 4.0 | 0.00 | 0.00 | 0.00 | 53 | 1019.6 |
| 20260502185223 | 64 | 44 | 1.0 | 2.0 | 0.00 | 0.00 | 0.00 | 53 | 1019.5 |
| 20260502184723 | 64 | 272 | 0.0 | 3.0 | 0.00 | 0.00 | 0.00 | 51 | 1019.4 |
| 20260502184223 | 64 | 115 | 2.0 | 4.0 | 0.00 | 0.00 | 0.00 | 50 | 1019.2 |
| 20260502183717 | 65 | 105 | 3.0 | 6.0 | 0.00 | 0.00 | 0.00 | 50 | 1019.2 |
| 20260502183219 | 65 | 113 | 4.0 | 6.0 | 0.00 | 0.00 | 0.00 | 50 | 1019.1 |
| 20260502182717 | 65 | 109 | 2.0 | 6.0 | 0.00 | 0.00 | 0.00 | 50 | 1019.1 |
| 20260502182217 | 65 | 113 | 3.0 | 6.0 | 0.00 | 0.00 | 0.00 | 50 | 1019.1 |
| 20260502181717 | 66 | 121 | 3.0 | 4.0 | 0.00 | 0.00 | 0.00 | 50 | 1019.0 |
| 20260502181220 | 66 | 105 | 2.0 | 4.0 | 0.00 | 0.00 | 0.00 | 49 | 1019.0 |
| 20260502180717 | 66 | 113 | 3.0 | 4.0 | 0.00 | 0.00 | 0.00 | 50 | 1019.0 |
| 20260502180220 | 67 | 127 | 2.0 | 4.0 | 0.00 | 0.00 | 0.00 | 48 | 1018.9 |
| 20260502170223 | 74 | 151 | 0.0 | 3.0 | 0.00 | 0.00 | 0.00 | 42 | 1018.5 |
| 20260502164217 | 74 | 198 | 1.0 | 3.0 | 0.00 | 0.00 | 0.00 | 40 | 1018.4 |
| 20260502163717 | 74 | 243 | 1.0 | 7.0 | 0.00 | 0.00 | 0.00 | 39 | 1018.5 |
| 20260502163221 | 74 | 253 | 3.0 | 4.0 | 0.00 | 0.00 | 0.00 | 39 | 1018.5 |
| 20260502162720 | 74 | 279 | 2.0 | 8.0 | 0.00 | 0.00 | 0.00 | 39 | 1018.4 |
| 20260502162220 | 75 | 257 | 2.0 | 6.0 | 0.00 | 0.00 | 0.00 | 37 | 1018.5 |
| 20260502161720 | 75 | 312 | 3.0 | 8.0 | 0.00 | 0.00 | 0.00 | 38 | 1018.5 |
| 20260502161217 | 74 | 271 | 1.0 | 8.0 | 0.00 | 0.00 | 0.00 | 36 | 1018.5 |
| 20260502160718 | 74 | 167 | 0.0 | 7.0 | 0.00 | 0.00 | 0.00 | 35 | 1018.5 |
| 20260502160223 | 74 | 166 | 4.0 | 7.0 | 0.00 | 0.00 | 0.00 | 35 | 1018.5 |
| 20260502152217 | 74 | 161 | 7.0 | 10.0 | 0.00 | 0.00 | 0.00 | 34 | 1018.8 |
| 20260502151720 | 74 | 88 | 3.0 | 10.0 | 0.00 | 0.00 | 0.00 | 34 | 1018.8 |
| 20260502151217 | 75 | 76 | 3.0 | 9.0 | 0.00 | 0.00 | 0.00 | 37 | 1018.8 |
| 20260502150717 | 75 | 107 | 3.0 | 8.0 | 0.00 | 0.00 | 0.00 | 35 | 1018.9 |
| 20260502150221 | 75 | 339 | 2.0 | 10.0 | 0.00 | 0.00 | 0.00 | 36 | 1018.9 |
| 20260502130721 | 72 | 71 | 4.0 | 11.0 | 0.00 | 0.00 | 0.00 | 36 | 1020.2 |
| 20260502130220 | 72 | 63 | 2.0 | 10.0 | 0.00 | 0.00 | 0.00 | 38 | 1020.2 |
| 20260502123717 | 72 | 117 | 8.0 | 10.0 | 0.00 | 0.00 | 0.00 | 36 | 1020.5 |
| 20260502123223 | 72 | 68 | 8.0 | 9.0 | 0.00 | 0.00 | 0.00 | 40 | 1020.7 |
| 20260502122720 | 71 | 60 | 5.0 | 14.0 | 0.00 | 0.00 | 0.00 | 38 | 1020.7 |
| 20260502122223 | 71 | 74 | 4.0 | 11.0 | 0.00 | 0.00 | 0.00 | 39 | 1020.7 |
| 20260502121723 | 71 | 124 | 4.0 | 11.0 | 0.00 | 0.00 | 0.00 | 39 | 1020.8 |
| 20260502121220 | 71 | 126 | 7.0 | 12.0 | 0.00 | 0.00 | 0.00 | 39 | 1020.8 |
| 20260502120726 | 71 | 88 | 7.0 | 10.0 | 0.00 | 0.00 | 0.00 | 37 | 1021.0 |
| 20260502120221 | 71 | 75 | 5.0 | 13.0 | 0.00 | 0.00 | 0.00 | 37 | 1021.0 |
| 20260502115726 | 71 | 80 | 3.0 | 8.0 | 0.00 | 0.00 | 0.00 | 41 | 1021.1 |
| 20260502115223 | 71 | 65 | 2.0 | 12.0 | 0.00 | 0.00 | 0.00 | 40 | 1021.2 |
| 20260502114718 | 70 | 105 | 0.0 | 11.0 | 0.00 | 0.00 | 0.00 | 40 | 1021.2 |
| 20260502114220 | 70 | 133 | 9.0 | 11.0 | 0.00 | 0.00 | 0.00 | 39 | 1021.3 |
| 20260502113720 | 70 | 132 | 10.0 | 11.0 | 0.00 | 0.00 | 0.00 | 42 | 1021.4 |
| 20260502113217 | 69 | 129 | 3.0 | 12.0 | 0.00 | 0.00 | 0.00 | 39 | 1021.5 |
| 20260502112720 | 69 | 98 | 9.0 | 16.0 | 0.00 | 0.00 | 0.00 | 39 | 1021.6 |
| 20260502112217 | 70 | 59 | 9.0 | 10.0 | 0.00 | 0.00 | 0.00 | 39 | 1021.6 |
| 20260502111717 | 69 | 41 | 3.0 | 9.0 | 0.00 | 0.00 | 0.00 | 39 | 1021.6 |
| 20260502111217 | 69 | 257 | 2.0 | 4.0 | 0.00 | 0.00 | 0.00 | 40 | 1021.8 |
| 20260502110720 | 69 | 24 | 3.0 | 7.0 | 0.00 | 0.00 | 0.00 | 38 | 1022.0 |
| 20260502110220 | 69 | 153 | 1.0 | 11.0 | 0.00 | 0.00 | 0.00 | 39 | 1022.0 |
| 20260502105726 | 69 | 72 | 4.0 | 8.0 | 0.00 | 0.00 | 0.00 | 39 | 1022.1 |
| 20260502105217 | 69 | 142 | 5.0 | 10.0 | 0.00 | 0.00 | 0.00 | 39 | 1022.2 |
| 20260502104718 | 68 | 137 | 2.0 | 10.0 | 0.00 | 0.00 | 0.00 | 41 | 1022.2 |
| 20260502104217 | 68 | 146 | 5.0 | 13.0 | 0.00 | 0.00 | 0.00 | 39 | 1022.3 |
| 20260502103745 | 67 | 97 | 7.0 | 13.0 | 0.00 | 0.00 | 0.00 | 41 | 1022.3 |
| 20260502103217 | 67 | 130 | 5.0 | 14.0 | 0.00 | 0.00 | 0.00 | 40 | 1022.4 |
| 20260502102717 | 67 | 85 | 11.0 | 12.0 | 0.00 | 0.00 | 0.00 | 40 | 1022.5 |
| 20260502102220 | 67 | 171 | 6.0 | 13.0 | 0.00 | 0.00 | 0.00 | 40 | 1022.6 |
| 20260502101717 | 67 | 276 | 2.0 | 6.0 | 0.00 | 0.00 | 0.00 | 40 | 1022.5 |
| 20260502101217 | 67 | 36 | 6.0 | 12.0 | 0.00 | 0.00 | 0.00 | 41 | 1022.7 |
| 20260502100717 | 67 | 128 | 3.0 | 10.0 | 0.00 | 0.00 | 0.00 | 41 | 1022.7 |
| 20260502100217 | 67 | 128 | 7.0 | 8.0 | 0.00 | 0.00 | 0.00 | 44 | 1022.8 |
| 20260502091220 | 66 | 46 | 4.0 | 10.0 | 0.00 | 0.00 | 0.00 | 42 | 1023.3 |
| 20260502090720 | 66 | 113 | 6.0 | 12.0 | 0.00 | 0.00 | 0.00 | 40 | 1023.2 |
| 20260502090220 | 66 | 39 | 6.0 | 11.0 | 0.00 | 0.00 | 0.00 | 42 | 1023.3 |
| 20260502071223 | 61 | 69 | 1.0 | 4.0 | 0.00 | 0.00 | 0.00 | 51 | 1023.8 |
| 20260502070718 | 61 | 281 | 3.0 | 4.0 | 0.00 | 0.00 | 0.00 | 50 | 1023.9 |
| 20260502070223 | 60 | 323 | 1.0 | 4.0 | 0.00 | 0.00 | 0.00 | 55 | 1023.9 |
| 20260502065720 | 60 | 237 | 0.0 | 2.0 | 0.00 | 0.00 | 0.00 | 58 | 1023.8 |
| 20260502065220 | 59 | 197 | 2.0 | 3.0 | 0.00 | 0.00 | 0.00 | 57 | 1023.9 |
| 20260502064718 | 59 | 299 | 0.0 | 2.0 | 0.00 | 0.00 | 0.00 | 57 | 1023.9 |
| 20260502064217 | 59 | 329 | 0.0 | 2.0 | 0.00 | 0.00 | 0.00 | 57 | 1023.9 |
| 20260502063718 | 59 | 329 | 2.0 | 2.0 | 0.00 | 0.00 | 0.00 | 56 | 1023.9 |
| 20260502063220 | 59 | 355 | 1.0 | 3.0 | 0.00 | 0.00 | 0.00 | 54 | 1024.0 |
| 20260502062717 | 59 | 47 | 2.0 | 4.0 | 0.00 | 0.00 | 0.00 | 49 | 1024.0 |
| 20260502062226 | 58 | 52 | 2.0 | 4.0 | 0.00 | 0.00 | 0.00 | 49 | 1023.9 |
| 20260502061717 | 58 | 53 | 3.0 | 5.0 | 0.00 | 0.00 | 0.00 | 49 | 1024.0 |
| 20260502061220 | 57 | 68 | 2.0 | 5.0 | 0.00 | 0.00 | 0.00 | 51 | 1024.1 |
| 20260502060717 | 57 | 62 | 4.0 | 8.0 | 0.00 | 0.00 | 0.00 | 50 | 1024.0 |
| 20260502060220 | 56 | 49 | 4.0 | 7.0 | 0.00 | 0.00 | 0.00 | 51 | 1024.0 |
| 20260502055717 | 56 | 51 | 4.0 | 7.0 | 0.00 | 0.00 | 0.00 | 51 | 1024.0 |
| 20260502055220 | 55 | 53 | 3.0 | 6.0 | 0.00 | 0.00 | 0.00 | 52 | 1024.0 |
| 20260502054717 | 55 | 42 | 4.0 | 5.0 | 0.00 | 0.00 | 0.00 | 53 | 1024.0 |
| 20260502054223 | 55 | 38 | 1.0 | 5.0 | 0.00 | 0.00 | 0.00 | 52 | 1024.0 |
| 20260502053717 | 55 | 63 | 3.0 | 5.0 | 0.00 | 0.00 | 0.00 | 52 | 1024.0 |
| 20260502053217 | 54 | 51 | 4.0 | 5.0 | 0.00 | 0.00 | 0.00 | 52 | 1024.0 |
| 20260502052720 | 54 | 44 | 2.0 | 5.0 | 0.00 | 0.00 | 0.00 | 55 | 1024.1 |
| 20260502052217 | 53 | 76 | 2.0 | 5.0 | 0.00 | 0.00 | 0.00 | 56 | 1024.1 |
| 20260502051717 | 53 | 78 | 0.0 | 4.0 | 0.00 | 0.00 | 0.00 | 57 | 1024.0 |
| 20260502051223 | 53 | 76 | 4.0 | 5.0 | 0.00 | 0.00 | 0.00 | 54 | 1024.0 |
| 20260502050723 | 52 | 89 | 3.0 | 5.0 | 0.00 | 0.00 | 0.00 | 56 | 1024.0 |
| 20260502050217 | 52 | 90 | 4.0 | 4.0 | 0.00 | 0.00 | 0.00 | 58 | 1023.9 |
| 20260502045718 | 52 | 92 | 0.0 | 7.0 | 0.00 | 0.00 | 0.00 | 57 | 1023.9 |
| 20260502045217 | 51 | 90 | 6.0 | 7.0 | 0.00 | 0.00 | 0.00 | 56 | 1023.8 |
| 20260502044717 | 52 | 86 | 0.0 | 2.0 | 0.00 | 0.00 | 0.00 | 56 | 1023.8 |
| 20260502044226 | 52 | 79 | 1.0 | 4.0 | 0.00 | 0.00 | 0.00 | 54 | 1023.8 |
| 20260502043723 | 53 | 83 | 1.0 | 4.0 | 0.00 | 0.00 | 0.00 | 53 | 1023.8 |
| 20260502043226 | 54 | 84 | 1.0 | 6.0 | 0.00 | 0.00 | 0.00 | 51 | 1023.8 |
| 20260502042723 | 54 | 59 | 4.0 | 7.0 | 0.00 | 0.00 | 0.00 | 48 | 1023.7 |
| 20260502042217 | 54 | 77 | 3.0 | 8.0 | 0.00 | 0.00 | 0.00 | 47 | 1023.7 |
| 20260502041723 | 54 | 65 | 4.0 | 5.0 | 0.00 | 0.00 | 0.00 | 48 | 1023.8 |
| 20260502041220 | 54 | 68 | 2.0 | 6.0 | 0.00 | 0.00 | 0.00 | 49 | 1023.8 |
| 20260502040720 | 53 | 58 | 5.0 | 5.0 | 0.00 | 0.00 | 0.00 | 50 | 1023.8 |
| 20260502040220 | 54 | 77 | 2.0 | 4.0 | 0.00 | 0.00 | 0.00 | 51 | 1023.8 |
| 20260502035717 | 54 | 88 | 4.0 | 5.0 | 0.00 | 0.00 | 0.00 | 48 | 1023.8 |
| 20260502035220 | 54 | 81 | 4.0 | 5.0 | 0.00 | 0.00 | 0.00 | 48 | 1023.9 |
| 20260502034724 | 54 | 57 | 4.0 | 6.0 | 0.00 | 0.00 | 0.00 | 49 | 1023.9 |
| 20260502034218 | 53 | 51 | 4.0 | 5.0 | 0.00 | 0.00 | 0.00 | 49 | 1023.8 |
| 20260502033720 | 53 | 56 | 3.0 | 5.0 | 0.00 | 0.00 | 0.00 | 48 | 1023.8 |
| 20260502033217 | 52 | 47 | 2.0 | 6.0 | 0.00 | 0.00 | 0.00 | 51 | 1023.8 |
| 20260502032720 | 53 | 106 | 2.0 | 3.0 | 0.00 | 0.00 | 0.00 | 53 | 1023.8 |
| 20260502032306 | 53 | 65 | 2.0 | 5.0 | 0.00 | 0.00 | 0.00 | 51 | 1023.8 |
| 20260502031720 | 51 | 74 | 3.0 | 4.0 | 0.00 | 0.00 | 0.00 | 52 | 1023.8 |
| 20260502031217 | 50 | 84 | 3.0 | 7.0 | 0.00 | 0.00 | 0.00 | 56 | 1023.9 |
| 20260502030726 | 50 | 134 | 1.0 | 2.0 | 0.00 | 0.00 | 0.00 | 54 | 1024.0 |
| 20260502030217 | 51 | 87 | 1.0 | 3.0 | 0.00 | 0.00 | 0.00 | 54 | 1024.0 |
| 20260502025717 | 52 | 96 | 2.0 | 4.0 | 0.00 | 0.00 | 0.00 | 52 | 1023.9 |
| 20260502025220 | 54 | 135 | 3.0 | 4.0 | 0.00 | 0.00 | 0.00 | 49 | 1024.0 |
| 20260502024717 | 55 | 53 | 2.0 | 5.0 | 0.00 | 0.00 | 0.00 | 46 | 1023.9 |
| 20260502024224 | 55 | 65 | 2.0 | 5.0 | 0.00 | 0.00 | 0.00 | 45 | 1023.9 |
| 20260502023721 | 55 | 53 | 3.0 | 5.0 | 0.00 | 0.00 | 0.00 | 45 | 1024.0 |
| 20260502023217 | 55 | 67 | 2.0 | 4.0 | 0.00 | 0.00 | 0.00 | 45 | 1024.0 |
| 20260502022717 | 55 | 51 | 3.0 | 4.0 | 0.00 | 0.00 | 0.00 | 44 | 1024.1 |
| 20260502022217 | 56 | 61 | 2.0 | 5.0 | 0.00 | 0.00 | 0.00 | 43 | 1024.1 |
| 20260502021718 | 55 | 54 | 4.0 | 6.0 | 0.00 | 0.00 | 0.00 | 43 | 1024.1 |
| 20260502021218 | 56 | 69 | 2.0 | 6.0 | 0.00 | 0.00 | 0.00 | 43 | 1024.1 |
| 20260502020718 | 55 | 61 | 4.0 | 7.0 | 0.00 | 0.00 | 0.00 | 43 | 1024.1 |
| 20260502020217 | 56 | 51 | 4.0 | 7.0 | 0.00 | 0.00 | 0.00 | 43 | 1024.1 |
| 20260502015720 | 56 | 50 | 5.0 | 6.0 | 0.00 | 0.00 | 0.00 | 42 | 1024.1 |
| 20260502015217 | 56 | 76 | 5.0 | 6.0 | 0.00 | 0.00 | 0.00 | 42 | 1024.2 |
| 20260502014722 | 56 | 54 | 4.0 | 7.0 | 0.00 | 0.00 | 0.00 | 42 | 1024.1 |
| 20260502014224 | 56 | 32 | 6.0 | 9.0 | 0.00 | 0.00 | 0.00 | 42 | 1024.3 |
| 20260502013717 | 56 | 55 | 6.0 | 9.0 | 0.00 | 0.00 | 0.00 | 42 | 1024.3 |
| 20260502013220 | 56 | 22 | 5.0 | 9.0 | 0.00 | 0.00 | 0.00 | 42 | 1024.3 |
| 20260502012717 | 56 | 61 | 5.0 | 8.0 | 0.00 | 0.00 | 0.00 | 42 | 1024.4 |
| 20260502012220 | 56 | 56 | 5.0 | 5.0 | 0.00 | 0.00 | 0.00 | 42 | 1024.4 |
| 20260502011720 | 56 | 67 | 4.0 | 7.0 | 0.00 | 0.00 | 0.00 | 41 | 1024.5 |
| 20260502011220 | 56 | 56 | 4.0 | 8.0 | 0.00 | 0.00 | 0.00 | 41 | 1024.5 |
| 20260502010717 | 56 | 65 | 3.0 | 7.0 | 0.00 | 0.00 | 0.00 | 41 | 1024.5 |
| 20260502010224 | 55 | 63 | 3.0 | 6.0 | 0.00 | 0.00 | 0.00 | 41 | 1024.5 |
| 20260502005717 | 55 | 74 | 5.0 | 6.0 | 0.00 | 0.00 | 0.00 | 41 | 1024.4 |
| 20260502005221 | 55 | 47 | 3.0 | 8.0 | 0.00 | 0.00 | 0.00 | 41 | 1024.5 |
| 20260502004723 | 55 | 47 | 6.0 | 7.0 | 0.00 | 0.00 | 0.00 | 41 | 1024.5 |
| 20260502004223 | 55 | 50 | 4.0 | 9.0 | 0.00 | 0.00 | 0.00 | 41 | 1024.5 |
| 20260502003723 | 55 | 53 | 3.0 | 7.0 | 0.00 | 0.00 | 0.00 | 41 | 1024.6 |
| 20260502003217 | 55 | 60 | 3.0 | 6.0 | 0.00 | 0.00 | 0.00 | 41 | 1024.6 |
| 20260502002726 | 55 | 73 | 4.0 | 6.0 | 0.00 | 0.00 | 0.00 | 41 | 1024.7 |
| 20260502002227 | 55 | 80 | 2.0 | 7.0 | 0.00 | 0.00 | 0.00 | 40 | 1024.7 |
| 20260502001720 | 55 | 71 | 3.0 | 7.0 | 0.00 | 0.00 | 0.00 | 40 | 1024.7 |
| 20260502001217 | 55 | 77 | 3.0 | 7.0 | 0.00 | 0.00 | 0.00 | 40 | 1024.8 |
| 20260502000717 | 55 | 91 | 4.0 | 8.0 | 0.00 | 0.00 | 0.00 | 41 | 1024.8 |
| 20260502000218 | 55 | 80 | 3.0 | 9.0 | 0.00 | 0.00 | 0.00 | 42 | 1024.8 |
| 20260501235723 | 54 | 80 | 4.0 | 8.0 | 0.00 | 0.00 | 0.00 | 42 | 1024.8 |